Skip Page Navigation
NASA JPL Caltech
NASA Logo - Jet Propulsion Laboratory + View the NASA Portal
+ Center for Near-Earth Object Studies
JPL Home Earth Solar System Stars & Galaxies Technology
JPL Solar System Dynamics
BODIES ORBITS EPHEMERIDES TOOLS PHYSICAL DATA DISCOVERY FAQ SITE MAP
IMPORTANT: The SSD Announcement email list is now available. Major changes are coming in the near future, including possible hostname and/or URL changes. To be notified of such changes, subscribe to this email list.

Please visit this page for more details.


JPL Small-Body Database Browser
Search: [ help ]  
379187 (2009 RV63)
Classification: Jupiter Trojan          SPK-ID: 2379187
Ephemeris | Orbit Diagram | Orbital Elements | Mission Design | Physical Parameters | Discovery Circumstances ]

[ show orbit diagram ]
Orbital Elements at Epoch 2458600.5 (2019-Apr-27.0) TDB
Reference: JPL 11 (heliocentric ecliptic J2000)
 Element Value Uncertainty (1-sigma)   Units 
e .06823302606479355 1.2318e-07  
a 5.153325463784346 3.596e-07 au
q 4.801698473093584 5.522e-07 au
i 22.23409156864286 1.4791e-05 deg
node 13.20694595794951 2.5303e-05 deg
peri 117.796629454134 0.00013198 deg
M 181.4195221804717 0.00012269 deg
tp 2460720.135889019681
(2025-Feb-13.63588902)
0.0015117 TDB
period 4272.969416165606
11.70
0.00044725
1.225e-06
d
yr
n .08425054451315259 8.8184e-09 deg/d
Q 5.504952454475108 3.8413e-07 au
  Orbit Determination Parameters
   # obs. used (total)      148  
   data-arc span      5197 days (14.23 yr)  
   first obs. used      2002-03-20  
   last obs. used      2016-06-11  
   planetary ephem.      DE431  
   SB-pert. ephem.      SB431-N16  
   condition code      0  
   norm. resid. RMS      .53322  
   source      ORB  
   producer      Otto Matic  
   solution date      2017-Apr-09 23:38:46  

Additional Information
 Earth MOID = 3.87203 au 
 Jupiter MOID = .356576 au 
 T_jup = 2.848 
[ show covariance matrix ]

Ephemeris | Orbit Diagram | Orbital Elements | Mission Design | Physical Parameters | Discovery Circumstances ]

Physical Parameter Table
Parameter Symbol Value Units Sigma Reference Notes
absolute magnitude H 13.3   n/a MPO297750  

379187 (2009 RV63)          Discovered 2009-Sep-15 by Spacewatch at Kitt Peak
Reference: Last Updated: 2013-11-20
Ephemeris | Orbit Diagram | Orbital Elements | Mission Design | Physical Parameters | Discovery Circumstances ]
ABOUT SSD CREDITS/AWARDS PRIVACY/COPYRIGHT GLOSSARY LINKS
FirstGov 2019-Dec-06 10:52 UT
(server date/time)  
NASA Home Page
Site Manager:   Ryan S. Park
Webmaster  Alan B. Chamberlin